Location: Avully
(45.9633°N, 6.0228°E)
Time: 10:48:39
(UTC+00:00)

Cosmos 2242 Rocket - Pass Details

Date: 23 May 2024
Orbit: 617 x 647 km, 82.5° (Epoch: 14 June)

Event Time Altitude Azimuth Distance (km) Brightness Sun altitude
Exits shadow 02:30:55 18° 227° (SW) 1,551 4.9 -12.1°
Maximum altitude 02:33:43 36° 285° (WNW) 998 4.4 -11.8°
Drops below altitude 10° 02:37:53 10° 353° (N) 2,028 6.8 -11.3°
Sets 02:40:18 0° 2° (N) 2,947 7.8 -11.0°
